Probability
0 0 0 0 0 0 0 0 0 0 0 0 0 0 0 0 0 0 0 0 0 0 0 0 0 0 0 0 0 0 0 0 0 0 0 0 0 0
0 0 0 0 0 0 0 0 0 0 0 0 0 0 0 0 0 0 0 0 0 0 0 0 0 0 0 0 0 0 0 0 0 0 0 0 0 0
0 0 0 0 0 0 0 0 0 0 0 0 0 0 0 0 0 0 0 0 0 0 0 0 0 0 0 0 0 0 0 0 0 0 0 0 0 0
0 0 0 0 0 0 0 0 0 0 0 0 0 0 0 0 0 0 0 0 0 0 0 0 0 0 0 0 0 0 0 0 0 0 0 0 0 0
0 0 0 0 0 0 0 0 0 0 0 0 0 0 0 0 0 0 0 0 0 0 0 0 0 0 0 0 0 0 0 0 0 0 0 0 0 0
0 0 0 0 0 0 0 0 0 0 0 0 0 0 0 0 0 0 0 0 0 0 0 0 0 0 0 0 0 0 0 0 0 0 0 0 0 0
0 0 0 0 0 0 0 0 0 0 0 0 0 0 0 0 0 0 0 0 0 0 0 0 0 0 0 0 0 0 0 0 0 0 0 0 0 0
0 0 0 0 0 0 0 0 0 0 0 0 0 0 0 0 0 0 0 0 0 0 0 0 0 0 0 0 0 0 0 0 0 0 0 0 0 0
0 0 0 0 0 0 0 0 0 0 0 0 0 0 0 0 0 0 0 0 0 0 0 0 0 0 0 0 0 0 0 0 0 0 0 0 0 0
0 0 0 0 0 0 0 0 0 0 0 0 0 0 0 0 0 0 0 0 0 0 0 0 0 0 0 0 0 0 0 0 0 0 0 0 0 0
0 0 0 0 0 0 0 0 0 0 0 0 0 0 0 0 0 0 0 0 0 0 0 0 0 0 0 0 0 0 0 0 0 0 0 0 0 0
0 0 0 0 0 0 0 0 0 0 0 0 0 0 0 0 0 0 0 0 0 0 0 0 0 0 0 0 0 0 0 0 0 0 0 0 0 0
0 0 0 0 0 0 0 0 0 0 0 0 0 0 0 0 0 0 0 0 0 0 0 0 0 0 0 0 0 0 0 0 0 0 0 0 0 0
0 0 0 0 0 0 0 0 0 0 0 0 0 0 0 0 0 0 0 0 0 0 0 0 0 0 0 0 0 0 0 0 0 0 0 0 0 0
0 0 0 0 0 0 0 0 0 0 0 0 0 0 0 0 0 0 0 0 0 0 0 0 0 0 0 0 0 0 0 0 0 0 0 0 0 0
0 0 0 0 0 0 0 0 0 0 0 0 0 0 0 0 0 0 0 0 0 0 0 0 0 0 0 0 0 0 0 0 0 0 0 0 0 0
0 0 0 0 0 0 0 0 0 0 0 0 0 0 0 0 0 0 0 0 0 0 0 0 0 0 0 0 0 0 0 0 0 0 0 0 0 0
0 0 0 0 0 0 0 0 0 0 0 0 0 0 0 0 0 0 0 0 0 0 0 0 0 0 0 0 0 0 0 0 0 0 0 0 0 0
0 0 0 0 0 0 0 0 0 0 0 0 0 0 0 0 0 0 0 0 0 0 0 0 0 0 0 0 0 0 0 0 0 0 0 0 0 0
0 0 0 0 0 0 0 0 0 0 0 0 0 0 0 0 0 0 0 0 0 0 0 0 0 0 0 0 0 0 0 0 0 0 0 0 0 0
0 0 0 0 0 0 0 0 0 0 0 0 0 0 0 0 0 0 0 0 0 0 0 0 0 0 0 0 0 0 0 0 0 0 0 0 0 0
0 0 0 0 0 0 0 0 0 0 0 0 0 0 0 0 0 0 0 0 0 0 0 0 0 0 0 0 0 0 0 0 0 0 0 0 0 0
0 0 0 0 0 0 0 0 0 0 0 0 0 0 0 0 0 0 0 0 0 0 0 0 0 0 0 0 0 0 0 0 0 0 0 0 0 0
Height
5473 5457 5441 5424 5407 5391 5374 5358 5344 5334 5328 5315 5303 5292 5283 5278 5273 5270 5270 5272 5278 5286 5299 5314 5331 5351 5373 5397 5423 5449 5476 5505 5533 5559 5584 5607 5628 5647
5462 5447 5430 5414 5399 5383 5367 5352 5337 5324 5316 5308 5296 5287 5278 5271 5267 5263 5262 5264 5268 5276 5287 5301 5317 5336 5358 5381 5407 5434 5461 5489 5516 5542 5568 5591 5613 5632
5451 5437 5421 5405 5391 5375 5361 5346 5332 5318 5308 5301 5290 5282 5273 5267 5262 5258 5257 5257 5261 5268 5277 5290 5306 5324 5344 5367 5392 5418 5445 5472 5499 5526 5551 5575 5598 5620
5442 5427 5412 5397 5383 5368 5354 5340 5327 5314 5302 5294 5286 5277 5269 5262 5257 5254 5252 5252 5255 5261 5270 5281 5296 5313 5333 5355 5379 5405 5431 5457 5484 5511 5537 5562 5584 5604
5432 5418 5403 5389 5375 5361 5347 5334 5321 5309 5297 5288 5281 5273 5266 5259 5254 5250 5248 5248 5250 5255 5263 5274 5288 5304 5323 5344 5367 5391 5417 5445 5472 5498 5522 5547 5570 5591
5423 5409 5395 5381 5368 5355 5342 5329 5316 5304 5293 5283 5276 5269 5262 5256 5251 5247 5246 5245 5246 5250 5257 5267 5280 5296 5314 5334 5357 5380 5405 5430 5456 5482 5508 5533 5557 5578
5414 5400 5386 5373 5360 5347 5334 5321 5309 5298 5288 5279 5271 5265 5259 5253 5248 5245 5243 5242 5244 5246 5252 5262 5274 5290 5306 5325 5345 5368 5392 5417 5443 5469 5494 5519 5543 5565
5406 5392 5379 5366 5353 5340 5328 5315 5303 5292 5283 5275 5267 5261 5255 5250 5246 5243 5241 5241 5242 5245 5249 5258 5268 5283 5298 5317 5336 5357 5380 5405 5430 5456 5481 5506 5529 5552
5398 5385 5372 5359 5347 5335 5323 5311 5300 5288 5279 5271 5264 5258 5252 5248 5244 5241 5239 5239 5240 5242 5247 5254 5264 5277 5291 5308 5327 5347 5369 5393 5418 5443 5468 5493 5517 5539
5389 5377 5365 5352 5340 5328 5318 5307 5295 5284 5276 5268 5261 5255 5249 5245 5241 5239 5238 5238 5238 5240 5244 5251 5259 5271 5284 5301 5319 5338 5359 5382 5406 5431 5456 5481 5504 5527
5381 5369 5357 5346 5334 5323 5312 5301 5291 5280 5271 5263 5257 5251 5246 5241 5238 5237 5236 5236 5237 5239 5243 5248 5255 5266 5278 5294 5311 5329 5349 5371 5395 5419 5444 5468 5491 5513
5374 5362 5351 5340 5328 5316 5306 5295 5285 5276 5267 5260 5253 5247 5242 5238 5236 5234 5233 5233 5235 5237 5241 5246 5252 5261 5273 5286 5302 5320 5339 5360 5383 5407 5431 5455 5478 5500
5367 5356 5344 5333 5322 5311 5300 5290 5280 5271 5263 5256 5249 5244 5239 5236 5233 5231 5231 5231 5233 5235 5239 5243 5249 5257 5267 5280 5295 5312 5330 5350 5372 5395 5419 5442 5466 5489
5360 5349 5338 5328 5317 5306 5295 5285 5276 5267 5259 5252 5246 5241 5237 5233 5230 5229 5228 5229 5230 5233 5236 5241 5247 5254 5263 5274 5288 5304 5322 5341 5362 5384 5407 5430 5454 5478
5353 5342 5332 5322 5312 5301 5291 5281 5272 5263 5255 5248 5242 5237 5234 5230 5228 5226 5225 5226 5228 5230 5233 5238 5244 5250 5259 5269 5281 5295 5312 5331 5351 5373 5396 5419 5443 5467
5346 5336 5326 5316 5307 5297 5287 5277 5268 5259 5252 5245 5239 5235 5231 5228 5226 5224 5223 5224 5225 5228 5231 5235 5240 5247 5254 5263 5274 5288 5304 5322 5342 5363 5386 5409 5432 5456
5339 5330 5320 5311 5302 5292 5282 5273 5264 5256 5249 5242 5237 5232 5229 5226 5224 5223 5222 5222 5223 5225 5228 5232 5237 5242 5250 5258 5269 5281 5296 5314 5333 5353 5375 5399 5423 5447
5333 5324 5315 5306 5297 5288 5278 5269 5261 5253 5246 5240 5234 5230 5227 5224 5222 5221 5220 5220 5221 5223 5225 5229 5233 5239 5246 5254 5264 5275 5289 5306 5324 5344 5366 5390 5415 5439
5327 5318 5310 5301 5293 5284 5275 5266 5258 5251 5244 5238 5232 5228 5225 5222 5220 5219 5219 5219 5219 5221 5223 5226 5230 5235 5242 5250 5259 5269 5283 5297 5315 5336 5358 5384 5409 5432
5321 5313 5305 5297 5288 5280 5271 5263 5256 5249 5242 5236 5231 5226 5223 5221 5219 5218 5217 5217 5217 5219 5221 5224 5227 5232 5238 5245 5254 5264 5276 5291 5308 5329 5352 5376 5399 5421
5315 5308 5300 5292 5284 5276 5268 5260 5253 5246 5240 5234 5229 5225 5222 5219 5218 5216 5215 5215 5215 5216 5218 5221 5225 5229 5234 5241 5250 5260 5272 5285 5302 5322 5343 5365 5387 5409
5310 5302 5295 5287 5280 5272 5264 5257 5250 5244 5238 5232 5227 5223 5220 5218 5216 5215 5214 5214 5214 5215 5217 5220 5223 5227 5232 5239 5246 5256 5267 5281 5296 5313 5334 5357 5378 5404
5304 5297 5290 5283 5276 5268 5261 5254 5247 5241 5235 5230 5225 5222 5218 5216 5215 5213 5213 5213 5213 5214 5216 5219 5222 5226 5231 5237 5244 5253 5264 5276 5291 5309 5329 5352 5376 5400
Wind_Speed
74 73 72 71 70 69 69 68 66 61 52 47 44 41 38 33 28 26 27 36 48 61 74 85 95 103 110 116 122 125 126 124 121 116 112 107 100 90
73 71 70 69 67 67 67 65 63 61 53 46 42 39 37 33 29 26 26 33 45 58 70 82 91 99 106 113 120 124 125 125 122 118 114 110 104 94
71 70 68 67 65 64 64 63 61 58 53 45 41 38 35 31 28 26 25 29 40 54 66 78 87 95 102 110 117 122 125 125 123 120 115 112 107 99
69 68 66 65 63 63 62 61 59 55 51 45 39 36 33 30 26 24 23 26 35 48 61 73 83 91 98 106 114 120 124 125 124 121 116 113 108 103
68 66 64 63 61 61 60 59 57 53 49 44 38 35 32 29 25 22 21 22 29 41 55 67 78 86 93 101 110 117 122 125 124 121 118 114 111 105
66 65 63 61 60 59 58 57 55 51 46 42 37 34 31 27 24 20 18 19 24 34 47 61 72 81 89 97 106 114 120 124 124 122 119 115 112 107
64 63 61 60 58 58 57 56 54 49 44 40 37 33 30 26 22 19 17 17 21 29 41 54 66 76 85 93 101 110 118 122 124 123 120 117 113 110
62 60 59 58 57 55 54 54 52 49 43 39 35 32 28 25 21 18 16 16 19 25 35 46 59 69 79 88 96 105 114 120 123 123 121 118 115 111
61 59 58 56 55 54 52 51 49 46 42 38 34 31 28 24 20 18 16 15 18 22 30 40 52 62 73 83 91 100 109 116 121 123 122 119 115 112
59 58 56 55 54 53 50 49 48 45 40 36 33 30 27 23 19 17 15 15 16 20 27 36 46 55 66 77 85 94 104 112 119 122 122 120 116 113
57 56 55 53 52 51 50 48 46 43 39 35 32 29 26 22 19 16 15 15 17 19 24 32 40 49 59 70 80 89 98 108 116 120 122 120 117 115
55 54 53 52 50 50 48 47 45 41 38 34 31 28 25 21 18 16 14 15 16 19 23 30 36 45 53 64 75 84 93 103 112 118 121 121 119 116
53 52 51 50 49 48 48 46 44 41 36 32 29 25 23 20 17 15 14 15 16 19 23 28 35 41 49 59 69 79 89 99 108 115 120 121 120 117
51 50 49 48 47 47 46 45 43 40 35 31 27 24 21 19 17 15 14 15 17 19 22 27 33 39 47 54 64 74 83 94 104 112 117 120 120 117
50 49 48 47 46 46 45 43 41 38 34 30 26 22 20 17 15 13 13 14 16 19 22 26 31 38 44 52 60 70 79 89 99 108 115 119 119 117
48 47 46 45 45 44 44 42 39 36 32 28 25 21 18 16 14 12 11 12 15 18 21 25 30 36 42 49 57 65 75 84 95 104 111 116 118 117
46 45 45 44 44 43 42 40 37 35 31 28 24 21 17 15 13 11 10 10 13 16 20 24 29 33 40 47 53 62 71 80 90 99 107 113 116 116
45 44 43 43 42 41 40 38 35 33 30 27 24 20 17 14 12 10 9 9 11 14 17 21 26 31 37 44 51 58 67 76 85 95 104 110 114 115
43 42 41 41 41 40 38 36 33 31 29 27 23 19 16 13 11 10 9 9 10 13 15 18 23 29 34 41 48 56 63 72 81 91 100 107 111 112
41 40 40 39 39 38 37 34 32 30 29 26 23 19 15 13 11 9 9 8 9 12 14 17 21 25 31 39 46 53 61 69 78 86 95 102 106 109
39 39 38 38 38 37 35 33 31 29 28 25 22 18 15 13 11 10 8 7 8 10 13 16 19 22 27 35 43 51 59 66 74 82 90 98 103 106
38 37 37 36 37 36 34 32 30 28 27 24 21 17 15 12 10 9 7 5 6 9 12 14 17 20 24 31 40 49 56 63 71 80 87 95 100 103
36 35 35 35 35 35 33 31 29 27 26 23 20 17 14 12 9 7 5 4 5 8 11 13 16 18 22 29 36 44 53 61 69 77 84 90 95 98
Wind_Direction
328 329 329 329 330 330 331 331 331 333 335 329 324 319 314 308 296 277 254 232 218 212 210 210 210 210 209 208 207 205 203 202 202 203 203 202 201 201
328 330 330 330 330 331 332 332 331 332 334 332 325 320 316 310 298 283 261 237 221 213 210 210 210 209 208 208 207 205 203 202 202 202 202 202 201 201
329 330 330 330 331 331 332 332 331 331 333 333 327 322 318 313 302 288 267 243 225 215 212 210 210 209 208 207 206 205 203 202 201 202 202 202 201 200
329 330 331 331 331 332 333 333 332 331 332 333 329 324 320 315 308 292 271 247 229 218 213 212 210 209 208 207 206 205 204 202 201 201 201 202 201 201
329 331 331 331 332 332 333 333 333 332 331 332 329 325 322 316 309 297 277 252 233 221 215 213 211 209 208 207 206 205 204 202 201 201 201 202 201 201
329 331 332 332 332 332 333 333 333 332 332 331 329 326 323 317 310 299 281 258 236 223 216 213 211 210 208 207 206 205 204 203 201 201 201 201 201 201
329 331 332 331 332 333 333 334 334 333 332 331 330 326 323 318 311 300 283 263 241 225 216 213 212 210 209 207 206 205 204 203 202 201 201 201 202 202
330 331 332 332 332 333 333 334 334 334 332 331 329 327 323 319 310 300 284 265 244 227 216 212 212 210 209 208 207 206 204 203 202 201 201 201 201 202
330 331 332 332 333 334 333 334 334 333 332 331 329 326 323 318 309 297 284 264 246 229 216 211 211 210 210 209 207 206 205 204 203 201 200 201 201 202
330 331 333 333 333 334 334 334 335 334 332 330 328 325 323 317 307 294 280 262 245 229 215 210 209 208 209 209 207 206 205 204 203 202 201 201 201 202
330 332 333 333 334 334 335 335 335 334 332 329 327 325 321 316 307 292 277 259 241 227 215 209 208 206 207 208 207 206 205 204 203 202 201 201 201 202
330 331 332 333 335 335 336 336 336 334 331 329 326 324 321 315 306 292 275 256 240 226 215 209 207 205 205 206 207 206 205 204 204 203 202 201 202 202
330 331 332 333 335 336 337 337 336 335 333 330 327 323 321 315 306 292 273 254 238 227 216 209 207 205 204 205 206 206 205 205 204 203 202 202 202 202
330 332 332 334 335 336 337 337 337 336 334 332 329 325 321 316 307 294 273 253 237 226 217 211 208 205 202 203 204 205 205 204 204 204 203 202 202 202
331 332 333 334 336 336 337 337 337 337 336 334 331 327 322 319 310 297 275 252 238 227 219 212 209 206 202 201 203 204 204 204 204 204 203 203 202 202
331 332 333 335 336 337 338 338 338 339 338 336 334 330 324 319 313 301 281 254 238 229 220 213 210 206 203 201 201 202 203 203 203 204 204 203 203 202
331 332 334 335 336 338 338 339 339 340 340 338 336 331 326 321 313 303 286 260 240 230 222 215 210 208 205 202 200 201 202 202 203 203 204 203 203 203
330 332 334 335 336 338 339 339 340 341 341 339 337 332 327 322 315 305 289 265 240 225 219 214 210 208 206 203 200 200 200 201 202 203 203 203 203 203
330 332 334 335 337 338 339 340 341 342 342 341 339 335 329 323 316 307 292 269 241 226 219 215 211 208 206 203 201 199 198 199 200 201 202 203 203 203
330 332 334 335 337 339 340 340 341 342 342 342 340 337 331 325 319 308 295 272 245 228 219 214 210 208 207 205 202 198 197 198 198 199 200 201 202 203
329 331 333 335 337 339 340 340 341 342 342 341 340 338 333 327 320 311 299 275 246 222 213 208 207 207 206 205 202 198 196 196 196 197 198 200 201 202
329 331 333 335 337 339 340 340 341 341 341 340 339 337 333 327 321 314 302 275 236 217 210 206 205 205 204 202 199 197 195 194 194 194 196 198 199 201
328 330 332 334 336 339 340 340 340 341 341 340 338 335 332 329 323 315 299 260 221 202 199 198 196 194 194 194 194 194 194 193 192 192 193 195 198 200